Location: Cardiff
(53.7833°N, 113.6000°W)
Time: 15:12:41
(UTC+00:00)

RS-15 - Pass Details

Date: 11 December 2023
Orbit: 1893 x 2151 km, 64.8° (Epoch: 20 February)

Event Time Altitude Azimuth Distance (km) Brightness Sun altitude
Rises 07:19:26 0° 280° (W) 5,606 10.5 -59.2°
Reaches altitude 10° 07:23:09 10° 286° (WNW) 4,575 10.0 -59.2°
Enters shadow 07:23:52 12° 288° (WNW) 4,380 9.9 -59.2°
Exits shadow 07:44:39 13° 72° (ENE) 4,153 9.8 -59.0°
Drops below altitude 10° 07:45:28 10° 74° (ENE) 4,372 9.9 -59.0°
Sets 07:48:56 0° 80° (E) 5,343 10.5 -58.9°
